sat.trackr.live / text

‹ back to catalog

STARLINK-32281

NORAD 60375 · 2024-138W

PAYLOAD ACTIVE UNKNOWN

§ Identity

Operator
Country
US
Launch date
2024-08-04
Launch site
AFWTR
Launch vehicle
Mass (kg)
RCS (m²)

Purposes: comms

External: N2YO · Heavens-Above · Gunter

§ Orbital elements

Epoch: 2026-05-24T20:49:51.909024Z

Period
94.11 min
Inclination
53.1610°
Eccentricity
0.0001033
Mean motion
15.30174146 rev/d
Perigee alt
474.6 km
Apogee alt
476.0 km
Semi-major
6,853.4 km
B*
-3.5399e-5
RAAN
315.5609°
Arg perigee
93.7094°
Mean anomaly
266.4025°
Rev number
10,219

§ Raw data

STARLINK-322811 60375U 24138W   26144.86796191 -.00001406  00000+0 -35399-4 0  99982 60375  53.1610 315.5609 0001033  93.7094 266.4025 15.30174146102197

JSON: /api/v1/satellites/60375 · /tle

For live sub-satellite position, see the globe view (requires WebGL).

§ Visibility from observer

Set your observer location to see the next 7 days of passes ≥ 10°. The values pass through the URL so the page stays shareable.

No JS? Fill the form by hand. The geolocation button needs JavaScript.